When you browse on this site, cookies collect data to enhance your experience and personalize the content and advertising you see.
Visit our Privacy Policy to learn more. By continuing to use the site, you agree to this use of cookies and data.
  • In Romania
  • List of Countries
  • For 7 days
  • Water Temperature
  • Weather Map
  • Weather Widgets
  • user-avatar
    Login

    Hourly Weather Georgetown

    Today, 6 December, Friday

    Time Temperature Precipitation Wind Pressure Humidity
    00:00 +25°C° 0 mm 5 mps 734 mmHg 30%
    01:00 +25°C° 0 mm 5 mps 734 mmHg 30%
    02:00 +24°C° 0 mm 6 mps 734 mmHg 30%
    03:00 +23°C° 0 mm 6 mps 734 mmHg 30%
    04:00 +23°C° 0 mm 6 mps 734 mmHg 31%
    05:00 +23°C° 0 mm 6 mps 735 mmHg 30%
    06:00 +22°C° 0 mm 7 mps 735 mmHg 29%
    07:00 +22°C° 0 mm 7 mps 735 mmHg 29%
    08:00 +24°C° 0 mm 6 mps 735 mmHg 28%
    09:00 +27°C° 0 mm 6 mps 736 mmHg 28%
    10:00 +29°C° 0 mm 6 mps 736 mmHg 27%
    11:00 +29°C° 0 mm 5 mps 735 mmHg 28%
    12:00 +30°C° 0 mm 4 mps 734 mmHg 29%
    13:00 +30°C° 0 mm 3 mps 734 mmHg 30%
    14:00 +31°C° 0 mm 2 mps 733 mmHg 30%
    15:00 +31°C° 0 mm 2 mps 733 mmHg 30%
    16:00 +31°C° 0 mm 1 mps 733 mmHg 31%
    17:00 +30°C° 0 mm 2 mps 733 mmHg 32%
    18:00 +28°C° 0 mm 3 mps 733 mmHg 34%
    19:00 +27°C° 0 mm 4 mps 733 mmHg 36%
    20:00 +27°C° 0 mm 5 mps 734 mmHg 34%
    21:00 +27°C° 0 mm 5 mps 734 mmHg 31%
    22:00 +26°C° 0 mm 6 mps 735 mmHg 29%
    23:00 +26°C° 0 mm 7 mps 735 mmHg 29%

    Tomorrow, 7 December, Saturday

    Time Temperature Precipitation Wind Pressure Humidity
    00:00 +26°C° 0 mm 7 mps 734 mmHg 29%
    01:00 +24°C° 0 mm 8 mps 734 mmHg 29%
    02:00 +24°C° 0 mm 8 mps 734 mmHg 29%
    03:00 +23°C° 0 mm 8 mps 734 mmHg 29%
    04:00 +23°C° 0 mm 8 mps 735 mmHg 29%
    05:00 +22°C° 0 mm 8 mps 735 mmHg 29%
    06:00 +22°C° 0 mm 8 mps 735 mmHg 29%
    07:00 +22°C° 0 mm 8 mps 735 mmHg 29%
    08:00 +24°C° 0 mm 8 mps 736 mmHg 28%
    09:00 +27°C° 0 mm 7 mps 736 mmHg 27%
    10:00 +28°C° 0 mm 7 mps 736 mmHg 27%
    11:00 +29°C° 0 mm 6 mps 735 mmHg 27%
    12:00 +30°C° 0 mm 5 mps 735 mmHg 27%
    13:00 +32°C° 0 mm 4 mps 734 mmHg 28%
    14:00 +32°C° 0 mm 4 mps 734 mmHg 29%
    15:00 +31°C° 0 mm 3 mps 733 mmHg 30%
    16:00 +31°C° 0 mm 2 mps 733 mmHg 31%
    17:00 +30°C° 0 mm 3 mps 733 mmHg 31%
    18:00 +29°C° 0 mm 4 mps 733 mmHg 30%
    19:00 +28°C° 0 mm 5 mps 734 mmHg 30%
    20:00 +27°C° 0 mm 6 mps 734 mmHg 29%
    21:00 +27°C° 0 mm 6 mps 734 mmHg 29%
    22:00 +26°C° 0 mm 7 mps 734 mmHg 28%
    23:00 +26°C° 0 mm 7 mps 734 mmHg 28%

    Day after tomorrow, 8 December, Sunday

    Time Temperature Precipitation Wind Pressure Humidity
    00:00 +24°C° 0 mm 7 mps 734 mmHg 28%
    01:00 +24°C° 0 mm 8 mps 734 mmHg 28%
    02:00 +24°C° 0 mm 8 mps 734 mmHg 29%
    03:00 +23°C° 0 mm 8 mps 734 mmHg 30%
    04:00 +23°C° 0 mm 8 mps 734 mmHg 31%
    05:00 +23°C° 0 mm 9 mps 734 mmHg 31%
    06:00 +23°C° 0 mm 9 mps 735 mmHg 31%
    07:00 +23°C° 0 mm 9 mps 735 mmHg 32%
    08:00 +24°C° 0 mm 9 mps 735 mmHg 31%
    09:00 +27°C° 0 mm 8 mps 736 mmHg 30%
    10:00 +29°C° 0 mm 8 mps 736 mmHg 29%
    11:00 +30°C° 0 mm 7 mps 735 mmHg 29%
    12:00 +30°C° 0 mm 6 mps 735 mmHg 29%
    13:00 +32°C° 0 mm 5 mps 734 mmHg 29%
    14:00 +32°C° 0 mm 5 mps 734 mmHg 29%
    15:00 +33°C° 0 mm 4 mps 733 mmHg 30%
    16:00 +33°C° 0 mm 4 mps 733 mmHg 30%
    17:00 +32°C° 0 mm 4 mps 733 mmHg 30%
    18:00 +30°C° 0 mm 5 mps 734 mmHg 31%
    19:00 +29°C° 0 mm 5 mps 734 mmHg 31%
    20:00 +28°C° 0 mm 6 mps 734 mmHg 31%
    21:00 +27°C° 0 mm 6 mps 734 mmHg 32%
    22:00 +26°C° 0 mm 7 mps 734 mmHg 32%
    23:00 +26°C° 0 mm 7 mps 734 mmHg 32%

    9 December, Monday

    Time Temperature Precipitation Wind Pressure Humidity
    00:00 +24°C° 0 mm 7 mps 734 mmHg 31%
    01:00 +24°C° 0 mm 8 mps 734 mmHg 31%
    02:00 +24°C° 0 mm 8 mps 734 mmHg 31%
    03:00 +23°C° 0 mm 8 mps 734 mmHg 31%
    04:00 +23°C° 0 mm 9 mps 734 mmHg 31%
    05:00 +22°C° 0 mm 9 mps 734 mmHg 32%
    06:00 +22°C° 0 mm 9 mps 735 mmHg 32%
    07:00 +22°C° 0 mm 9 mps 735 mmHg 33%
    08:00 +23°C° 0 mm 8 mps 735 mmHg 31%
    09:00 +26°C° 0 mm 8 mps 736 mmHg 30%
    10:00 +27°C° 0 mm 7 mps 736 mmHg 29%
    11:00 +28°C° 0 mm 6 mps 735 mmHg 29%
    12:00 +29°C° 0 mm 4 mps 735 mmHg 30%
    13:00 +30°C° 0 mm 3 mps 734 mmHg 30%
    14:00 +30°C° 0 mm 2 mps 734 mmHg 30%
    15:00 +30°C° 0 mm 2 mps 733 mmHg 31%
    16:00 +30°C° 0 mm 1 mps 733 mmHg 31%
    17:00 +29°C° 0 mm 1 mps 733 mmHg 34%
    18:00 +27°C° 0 mm 2 mps 733 mmHg 36%
    19:00 +26°C° 0 mm 2 mps 734 mmHg 39%
    20:00 +26°C° 0 mm 3 mps 734 mmHg 36%
    21:00 +26°C° 0 mm 4 mps 734 mmHg 32%
    22:00 +26°C° 0 mm 4 mps 735 mmHg 29%
    23:00 +25°C° 0 mm 5 mps 734 mmHg 29%

    10 December, Tuesday

    Time Temperature Precipitation Wind Pressure Humidity
    00:00 +24°C° 0 mm 6 mps 734 mmHg 29%
    01:00 +23°C° 0 mm 6 mps 734 mmHg 29%
    02:00 +23°C° 0 mm 6 mps 734 mmHg 29%
    03:00 +22°C° 0 mm 6 mps 734 mmHg 29%
    04:00 +22°C° 0 mm 6 mps 734 mmHg 30%
    05:00 +22°C° 0 mm 6 mps 734 mmHg 30%
    06:00 +22°C° 0 mm 6 mps 734 mmHg 30%
    07:00 +21°C° 0 mm 6 mps 735 mmHg 30%
    08:00 +23°C° 0 mm 6 mps 735 mmHg 29%
    09:00 +26°C° 0 mm 6 mps 735 mmHg 28%
    10:00 +28°C° 0 mm 6 mps 735 mmHg 27%
    11:00 +29°C° 0 mm 4 mps 734 mmHg 27%
    12:00 +30°C° 0 mm 3 mps 734 mmHg 28%
    13:00 +30°C° 0 mm 2 mps 733 mmHg 28%
    14:00 +30°C° 0 mm 2 mps 733 mmHg 30%
    15:00 +30°C° 0 mm 2 mps 732 mmHg 31%
    16:00 +29°C° 0 mm 2 mps 732 mmHg 32%
    17:00 +28°C° 0 mm 3 mps 732 mmHg 34%
    18:00 +27°C° 0 mm 3 mps 732 mmHg 37%
    19:00 +26°C° 0 mm 3 mps 733 mmHg 39%
    20:00 +26°C° 0 mm 4 mps 733 mmHg 36%
    21:00 +26°C° 0 mm 4 mps 734 mmHg 33%
    22:00 +26°C° 0 mm 4 mps 734 mmHg 29%
    23:00 +25°C° 0 mm 5 mps 734 mmHg 29%

    11 December, Wednesday

    Time Temperature Precipitation Wind Pressure Humidity
    00:00 +25°C° 0 mm 5 mps 734 mmHg 29%
    01:00 +23°C° 0 mm 6 mps 734 mmHg 29%
    02:00 +23°C° 0 mm 5 mps 733 mmHg 29%
    03:00 +23°C° 0 mm 5 mps 733 mmHg 30%
    04:00 +23°C° 0 mm 5 mps 733 mmHg 30%
    05:00 +23°C° 0 mm 5 mps 733 mmHg 29%
    06:00 +22°C° 0 mm 5 mps 734 mmHg 29%
    07:00 +22°C° 0 mm 5 mps 734 mmHg 29%
    08:00 +25°C° 0 mm 5 mps 735 mmHg 28%
    09:00 +26°C° 0 mm 5 mps 735 mmHg 28%
    10:00 +28°C° 0 mm 4 mps 735 mmHg 27%
    11:00 +29°C° 0 mm 4 mps 734 mmHg 28%
    12:00 +30°C° 0 mm 3 mps 734 mmHg 29%
    13:00 +31°C° 0 mm 2 mps 733 mmHg 30%
    14:00 +31°C° 0 mm 3 mps 733 mmHg 30%
    15:00 +31°C° 0 mm 3 mps 732 mmHg 30%
    16:00 +31°C° 0 mm 3 mps 732 mmHg 30%
    17:00 +29°C° 0 mm 3 mps 732 mmHg 32%
    18:00 +28°C° 0 mm 3 mps 732 mmHg 34%
    19:00 +27°C° 0 mm 2 mps 733 mmHg 36%
    20:00 +26°C° 0 mm 3 mps 733 mmHg 33%
    21:00 +26°C° 0 mm 4 mps 733 mmHg 31%
    22:00 +26°C° 0 mm 4 mps 734 mmHg 28%
    23:00 +25°C° 0 mm 5 mps 734 mmHg 29%
    Show more